[Date Prev][Date Next][Thread Prev][Thread Next] - [Date Index][Thread Index][Author Index]

2 Line ISS Keps 10-28



ISS
1 25544U 98067A   05300.97990257  .00020180  00000-0  14098-3 0  6348
2 25544 051.6429 300.4421 0002023 077.1973 324.9162 15.74279418396580
----
Via the sarex mailing list at AMSAT.ORG courtesy of AMSAT-NA.
To unsubscribe, send "unsubscribe sarex" to Majordomo@amsat.org



AMSAT Top AMSAT Home